Regional Weather Roundup
Issued by NWS Boston, MA

Current Version | Previous Version | Text Only | Print | Product List | Glossary Off
Versions: 1 2 3 4 5 6 7 8 9 10 11 12 13 14 15 16 17 18 19 20 21 22 23 24 25 26 27 28 29 30 31 32 33 34 35 36 37 38 39 40 41 42 43 44 45 46 47 48 49 50
000 ASUS41 KBOX 170610 RWRBOX REGIONAL WEATHER ROUNDUP NATIONAL WEATHER SERVICE BOSTON/NORTON MA 100 AM EST SAT NOV 17 2018 NOTE: "FAIR" INDICATES FEW OR NO CLOUDS BELOW 12,000 FEET WITH NO SIGNIFICANT WEATHER AND/OR OBSTRUCTIONS TO VISIBILITY. MAZALL-170700- EASTERN MASSACHUSETTS CITY SKY/WX TMP DP RH WIND PRES REMARKS BOSTON NOT AVBL BEVERLY FAIR 37 28 70 SW10 29.79R WCI 30 LAWRENCE FAIR 39 28 64 SW10 29.80R BEDFORD FAIR 35 28 75 SW6 29.80R WCI 30 BLUE HILL N/A 34 30 85 SW12G20 29.79R WCI 25 NORWOOD FAIR 38 31 76 S6 29.83R MARSHFIELD FAIR 37 32 81 W3 29.84R PLYMOUTH FAIR 42 32 67 SW8 29.85R TAUNTON FAIR 39 31 72 SW7 29.85R NEW BEDFORD FAIR 39 33 79 SW9 29.85R $$ MAZALL-170700- CAPE COD AND THE ISLANDS CITY SKY/WX TMP DP RH WIND PRES REMARKS FALMOUTH MOCLDY 41 32 70 W21 29.86R WCI 32 HYANNIS FAIR 41 32 70 W13 29.84R CHATHAM FAIR 39 31 72 W8 29.85R PROVINCETOWN FAIR 41 34 76 W24 29.83R WCI 31 NANTUCKET CLOUDY 44 33 65 NW18G26 29.87R MARTHAS VNYRD MOCLDY 44 32 62 W18G28 29.87R $$ MAZALL-170700- CENTRAL AND WESTERN MASSACHUSETTS CITY SKY/WX TMP DP RH WIND PRES REMARKS WORCESTER FAIR 35 28 75 W16 29.78R WCI 25 6HR MIN TEMP: 33; 6HR MAX TEMP: 35; FITCHBURG FAIR 37 28 70 VRB5 29.80S ORANGE CLOUDY 39 28 64 CALM 29.82S SPRINGFIELD CLOUDY 38 29 72 CALM 29.85R WESTFIELD CLOUDY 40 29 64 W6 29.86R NORTH ADAMS CLOUDY 38 30 73 W12G21 29.86R WCI 30 PITTSFIELD CLOUDY 36 29 75 W12 29.83R WCI 28 $$ RIZALL-170700- RHODE ISLAND CITY SKY/WX TMP DP RH WIND PRES REMARKS PROVIDENCE FAIR 36 30 79 SW7 29.87R WCI 30 6HR MIN TEMP: 36; 6HR MAX TEMP: 38; NEWPORT FAIR 39 31 72 CALM 29.87R BLOCK ISLAND FAIR N/A N/A N/A W15G25 29.90R SMITHFIELD FAIR 36 30 79 W7 29.84R WCI 30 WESTERLY FAIR 41 32 70 W9G18 29.90R $$ CTZALL-170700- CONNECTICUT CITY SKY/WX TMP DP RH WIND PRES REMARKS BRADLEY INTL MOCLDY 36 31 82 S7 29.88R WCI 30 6HR MIN TEMP: 34; 6HR MAX TEMP: 37; HARTFORD CLOUDY 40 30 67 SW8 29.89R BRIDGEPORT FAIR 39 31 72 W13G21 29.93R WCI 31 DANBURY MOCLDY 38 29 70 SW9 29.93R WCI 31 GROTON FAIR 40 31 70 W10 29.90R NEW HAVEN FAIR 41 31 67 W8 29.92R CHESTER FAIR 37 30 75 W7 29.89R MERIDEN FAIR 39 29 67 W6 29.91R WILLIMANTIC CLOUDY 39 31 72 W9 29.88R OXFORD MOCLDY 37 29 72 W10G17 29.90R WCI 30 $$ MEZ002-015-021-024-NHZ003-005-008-011-012-014-VTZ005-008-170700- NORTHERN NEW ENGLAND CITY SKY/WX TMP DP RH WIND PRES REMARKS PORTLAND ME MOCLDY 31 28 89 SW7 29.73R WCI 24 6HR MIN TEMP: 30; 6HR MAX TEMP: 32; 6HR PCP: TRACE; BANGOR ME FLURRIES 26 24 92 SW3 29.68R CONCORD NH FAIR 23 21 92 S5 29.76R WCI 17 MANCHESTER NH FAIR 35 29 78 SW6 29.76R WCI 30 NASHUA NH FAIR 35 31 85 SW5 29.79R WCI 31 PORTSMOUTH NH PTCLDY 32 28 84 SW6 29.75R WCI 27 JAFFREY NH CLOUDY 36 29 75 SW12G17 29.77R WCI 28 KEENE NH CLOUDY 36 30 79 VRB3 29.81R BURLINGTON VT CLOUDY 34 31 88 CALM 29.78R MT. WASHINGTON SNOW 14 14 100 W78G90 N/A VSB 0 WCI -15 $$ NYZ052-076-170700- EASTERN NEW YORK CITY SKY/WX TMP DP RH WIND PRES REMARKS ALBANY CLOUDY 39 30 70 SW5 29.88S 6HR MIN TEMP: 36; 6HR MAX TEMP: 40; 6HR PCP: TRACE; NEW YORK CITY MOCLDY 40 29 64 W13G22 29.98R 6HR MIN TEMP: 40; 6HR MAX TEMP: 43; $$ ANZALL-170700- MARINE OBSERVATIONS STATION/POSITION TIME TEMP WIND PRES VSBY WAVE AIR SEA DIR/SP/G HT/PER (UTC) (F) (DEG/KT/KT) (MB) (MI) (FT/S) BOSTON BUOY 0550 42 52 230/ 19/ 25 1008.9R 6/11 BUZZARDS BAY 0500 45 270/ 27/ 30 1011.3R NANTUCKET SOUND 0550 45 48 270/ 23/ 29 1011.1R 3/ 4 MASS BAY-STELLWA 0504 42 49 270/ 23/ 29 1007.1R 1 7/8 8/11 ISLE OF SHOALS 0500 38 240/ 19/ 23 1006.7R S OF BLOCK IS 0543 55 N/A 11/ 9 $$ ......................KEY......................... SKY/WX - SKY CONDITION/PRESENT WEATHER TMP - TEMPERATURE IN FAHRENHEIT DWPT - DEWPOINT IN FAHRENHEIT RH - RELATIVE HUMIDITY IN PERCENT WIND - DIRECTION AND SPEED IN MPH PRES - MEAN SEA LEVEL PRESSURE IN INCHES OF HG WCI - WIND CHILL INDEX VSB - VISIBILITY IN MILES HX - HEAT INDEX TC - TEMPERATURE IN CELSIUS VRB - VARIABLE WIND DIRECTION N/A - NOT AVAILABLE

USA.gov is the U.S. government's official web portal to all federal, state and local government web resources and services.